[[[{"header":{"parameterUnit":"kt","parameterCategory":2,"dx":1,"dy":1,"la1":30.253999710083008,"la2":30.299108505249023,"lo1":-89.0895004272461,"lo2":-89.04439544677734,"nx":28,"ny":28,"refTime":"2022-09-18T21:00:00:Z","depth":"0","parameterNumber":2,"parameterNumberName":"U-component_of_CURRENTS"},"data":[-0.1473,-0.1577,-0.1631,-0.1877,-0.1962,-0.2008,-0.2012,-0.187,-0.1763,-0.1606,-0.1587,-0.1527,-0.1804,-0.2506,-0.271,-0.2606,-0.2446,-0.243,-0.2222,-0.2299,-0.2273,-0.2249,-0.2322,-0.2486,-0.2486,-0.2284,-0.2283,-0.2282,-0.1413,-0.1438,-0.1559,-0.1708,-0.187,-0.1913,-0.2016,-0.1976,-0.1958,-0.1887,-0.1797,-0.1889,-0.1969,-0.2056,-0.2353,-0.2338,-0.2253,-0.2224,-0.2257,-0.2147,-0.2153,-0.2231,-0.2379,-0.2379,-0.2379,-0.2379,-0.2379,-0.2379,-0.1302,-0.134,-0.1398,-0.1555,-0.1694,-0.1834,-0.1884,-0.1977,-0.2068,-0.2029,-0.2063,-0.1924,-0.2033,-0.1886,-0.1843,-0.199,-0.1812,-0.1985,-0.193,-0.1907,-0.1887,-0.1891,-0.1924,-0.1922,-0.192,-0.1919,-0.1918,0,-0.1235,-0.1231,-0.1287,-0.1426,-0.1551,-0.169,-0.1848,-0.1924,-0.2055,-0.2099,-0.2121,-0.2058,-0.1968,-0.1925,-0.1775,-0.168,-0.1692,-0.1662,-0.169,-0.1898,-0.1928,-0.1821,-0.176,-0.1799,-0.1797,-0.1795,-0.1794,-0.1793,-0.1145,-0.1173,-0.126,-0.1338,-0.1393,-0.1541,-0.1668,-0.1802,-0.1924,-0.2027,-0.2079,-0.2022,-0.1969,-0.1787,-0.1744,-0.157,-0.1476,-0.1606,-0.1652,-0.1714,-0.1653,-0.1643,-0.157,-0.1766,-0.1769,-0.1772,-0.1774,0,-0.1103,-0.1107,-0.1199,-0.1296,-0.1345,-0.1448,-0.1638,-0.1771,-0.1862,-0.1994,-0.2011,-0.2059,-0.1952,-0.1825,-0.1658,-0.1639,-0.1524,-0.1448,-0.1593,-0.1585,-0.1664,-0.1632,-0.1646,-0.1566,-0.1447,-0.1448,-0.1449,0,-0.1041,-0.1111,-0.114,-0.1188,-0.1324,-0.1397,-0.1572,-0.1672,-0.181,-0.193,-0.1944,-0.199,-0.1903,-0.1826,-0.1695,-0.1592,-0.1559,-0.1502,-0.1472,-0.1586,-0.16,-0.1584,-0.155,-0.1428,-0.1429,-0.143,-0.143,0,-0.0961,-0.1055,-0.1118,-0.1157,-0.1276,-0.1358,-0.1449,-0.1607,-0.1717,-0.1824,-0.1864,-0.1907,-0.1899,-0.1799,-0.1671,-0.1673,-0.154,-0.1521,-0.1478,-0.1479,-0.1525,-0.1532,-0.1651,-0.1431,-0.1431,-0.1431,-0.1432,0,-0.0914,-0.0944,-0.1035,-0.1145,-0.1181,-0.1268,-0.144,-0.1541,-0.1677,-0.1724,-0.1791,-0.1787,-0.1824,-0.1733,-0.1678,-0.1701,-0.1606,-0.1533,-0.1528,-0.1518,-0.1469,-0.1498,-0.1619,-0.1667,-0.1441,-0.1441,-0.1442,0,-0.0837,-0.0901,-0.0912,-0.1038,-0.1095,-0.115,-0.1264,-0.1371,-0.1445,-0.1541,-0.1561,-0.1642,-0.1617,-0.1643,-0.1633,-0.1587,-0.1562,-0.1594,-0.1422,-0.1417,-0.1441,-0.1546,-0.168,-0.162,-0.1448,-0.1448,-0.1447,0,-0.0766,-0.0784,-0.0799,-0.0841,-0.092,-0.0981,-0.1095,-0.1218,-0.1303,-0.1349,-0.1446,-0.1545,-0.1532,-0.1566,-0.1583,-0.1562,-0.1568,-0.1501,-0.1495,-0.1443,-0.1489,-0.1546,-0.1547,-0.154,-0.154,-0.154,-0.1453,0,-0.0701,-0.0727,-0.0753,-0.0799,-0.0857,-0.092,-0.0984,-0.1049,-0.1076,-0.1133,-0.1243,-0.1267,-0.1347,-0.1378,-0.1393,-0.1472,-0.1429,-0.1393,-0.1312,-0.1404,-0.1355,-0.1352,-0.1351,-0.1348,-0.1346,-0.1344,0,0,-0.0642,-0.0652,-0.0636,-0.0682,-0.0733,-0.0744,-0.0817,-0.0871,-0.0952,-0.1007,-0.0967,-0.1108,-0.1126,-0.1264,-0.1319,-0.133,-0.129,-0.1311,-0.1376,-0.1381,-0.1384,-0.1342,-0.1341,-0.1339,-0.1339,-0.1338,-0.1337,0,-0.0607,-0.0591,-0.0606,-0.0646,-0.0693,-0.073,-0.0742,-0.0803,-0.0838,-0.0929,-0.0939,-0.0994,-0.1077,-0.1128,-0.1162,-0.1294,-0.1207,-0.1315,-0.1392,-0.1358,-0.1365,-0.1371,-0.1333,-0.1334,-0.1331,-0.1332,-0.1332,0,-0.056,-0.0559,-0.0558,-0.0595,-0.0631,-0.0696,-0.067,-0.0724,-0.0791,-0.0764,-0.086,-0.0883,-0.092,-0.1021,-0.1054,-0.1019,-0.112,-0.112,-0.1133,-0.1109,-0.1067,-0.1077,-0.1087,-0.0957,-0.0956,-0.0955,0,0,-0.0541,-0.0533,-0.0569,-0.0593,-0.0613,-0.0655,-0.0688,-0.0704,-0.075,-0.0769,-0.0794,-0.0827,-0.0886,-0.0914,-0.095,-0.1034,-0.0972,-0.1078,-0.1095,-0.111,-0.1095,-0.1058,-0.1069,-0.0951,-0.0951,-0.0951,0,0,-0.0543,-0.0542,-0.0534,-0.0557,-0.0607,-0.0665,-0.0702,-0.071,-0.0762,-0.0754,-0.0758,-0.0764,-0.0842,-0.0834,-0.0789,-0.0932,-0.0855,-0.0864,-0.095,-0.0972,-0.0989,-0.0962,-0.0731,0,0,0,0,0,-0.052,-0.0538,-0.053,-0.0537,-0.0592,-0.0664,-0.0678,-0.0704,-0.0684,-0.0716,-0.0746,-0.0705,-0.0823,-0.0784,-0.079,-0.0854,-0.0905,-0.0913,-0.0921,-0.105,-0.1073,-0.1092,0,0,0,0,0,0,-0.0523,-0.0528,-0.0532,-0.0581,-0.0595,-0.0662,-0.0638,-0.0647,-0.0681,-0.068,-0.0706,-0.0706,-0.0708,-0.0778,-0.0784,-0.0846,-0.0729,-0.0908,-0.0915,-0.0921,-0.1058,-0.1076,-0.1092,0,0,0,0,0,-0.0526,-0.053,-0.0595,-0.0583,-0.0595,-0.064,-0.0636,-0.0643,-0.067,-0.0689,-0.0691,-0.0685,-0.0709,-0.0714,-0.0781,-0.0844,-0.0724,-0.0727,-0.0913,-0.0918,-0.0923,-0.1067,0,0,0,0,0,0,-0.0528,-0.0552,-0.06,-0.0607,-0.056,-0.0638,-0.0644,-0.0639,-0.0676,-0.068,-0.0667,-0.0665,-0.0711,-0.0714,-0.0718,-0.0846,-0.072,-0.0723,-0.0724,-0.0917,-0.0921,-0.0925,0,0,0,0,0,0,-0.055,-0.0557,-0.0604,-0.0573,-0.0577,-0.0636,-0.0641,-0.0674,-0.0674,-0.0651,-0.0652,-0.0665,-0.0684,-0.0715,-0.0717,-0.0771,-0.0717,-0.072,-0.0721,-0.0723,-0.092,-0.0924,0,0,0,0,0,0,-0.0555,-0.0561,-0.0571,-0.0574,-0.0578,-0.0664,-0.0665,-0.0705,-0.0689,-0.0648,-0.0684,-0.0681,-0.0683,-0.0687,-0.0717,-0.077,-0.0771,-0.0717,-0.0719,-0.072,-0.0721,0,0,0,0,0,0,0,-0.0559,-0.0494,-0.0554,-0.0575,-0.0578,-0.0676,-0.0678,-0.0681,-0.0689,-0.0687,-0.0684,-0.0682,-0.0703,-0.0706,-0.0708,-0.0769,0,0,-0.0717,-0.0718,0,0,0,0,0,0,0,0,-0.0494,-0.0494,-0.0554,-0.0556,-0.0557,-0.0677,-0.0678,-0.068,-0.0688,-0.0687,-0.0685,-0.0683,-0.0704,-0.0706,-0.0708,0,0,0,0,0,0,0,0,0,0,0,0,0,0,0,-0.0555,-0.0556,0,-0.0677,-0.0678,-0.068,-0.0688,-0.0687,-0.0685,-0.0684,-0.0704,-0.0706,-0.0708,0,0,0,0,0,0,0,0,0,0,0,0,0,0,0,0,0,0,0,0,0,0,0,0,0,0,0,0,0,0,0,0,0,0,0,0,0,0,0,0,0,0,0,0,0,0,0,0,0,0,0,0,0,0,0,0,0,0,0,0,0,0,0,0,0,0,0,0,0]}],[{"header":{"parameterUnit":"kt","parameterCategory":2,"dx":1,"dy":1,"la1":30.253999710083008,"la2":30.299108505249023,"lo1":-89.0895004272461,"lo2":-89.04439544677734,"nx":28,"ny":28,"refTime":"2022-09-18T21:00:00:Z","depth":"0","parameterNumber":3,"parameterNumberName":"V-component_of_CURRENTS"},"data":[-0.5228,-0.534,-0.5378,-0.5357,-0.5347,-0.5088,-0.4955,-0.4631,-0.4359,-0.3621,-0.3089,-0.2802,-0.1258,0.0892,0.2312,0.2416,0.2994,0.2869,0.3089,0.249,0.2378,0.227,0.233,0.3362,0.3365,0.4305,0.4316,0.4325,-0.5182,-0.5234,-0.5351,-0.542,-0.5397,-0.5403,-0.5253,-0.505,-0.4684,-0.43,-0.3847,-0.2883,-0.1927,-0.103,0.0246,0.0833,0.0942,0.1174,0.1458,0.1588,0.0354,0.0346,0.0973,0.0973,0.0972,0.0971,0.0971,0.097,-0.5076,-0.5156,-0.528,-0.5406,-0.5438,-0.5377,-0.5309,-0.5183,-0.4931,-0.4379,-0.4094,-0.3475,-0.2593,-0.1869,-0.1477,-0.0525,-0.0745,-0.0278,-0.0042,-0.0063,0.0163,-0.1466,-0.1021,-0.1024,-0.1027,-0.1029,-0.1031,0,-0.4988,-0.5042,-0.5163,-0.5301,-0.5373,-0.5381,-0.5387,-0.5317,-0.505,-0.472,-0.4181,-0.3787,-0.3016,-0.2411,-0.1929,-0.1662,-0.1064,-0.1402,-0.0815,-0.0267,-0.0289,-0.0021,-0.1615,-0.1153,-0.1157,-0.1159,-0.1162,-0.1163,-0.4827,-0.4944,-0.5109,-0.518,-0.5262,-0.5354,-0.536,-0.5277,-0.5165,-0.4617,-0.444,-0.3842,-0.3408,-0.2653,-0.2262,-0.1854,-0.1499,-0.1487,-0.161,-0.1157,-0.0858,-0.0848,-0.0668,-0.1205,-0.12,-0.1195,-0.1192,0,-0.4731,-0.481,-0.4988,-0.5114,-0.5149,-0.5245,-0.5245,-0.5187,-0.5008,-0.4713,-0.4601,-0.4101,-0.3561,-0.317,-0.2579,-0.2452,-0.1742,-0.195,-0.1862,-0.178,-0.1272,-0.1067,-0.0392,-0.0123,-0.1757,-0.1756,-0.1755,0,-0.4603,-0.4727,-0.4842,-0.4946,-0.5069,-0.5102,-0.5131,-0.5094,-0.4916,-0.4732,-0.4488,-0.4164,-0.3734,-0.3316,-0.3071,-0.2606,-0.249,-0.2393,-0.2309,-0.2155,-0.2154,-0.15,-0.1267,-0.2205,-0.2208,-0.221,-0.2213,0,-0.4442,-0.4622,-0.4778,-0.4829,-0.4936,-0.4991,-0.5024,-0.493,-0.488,-0.4642,-0.4453,-0.4142,-0.3835,-0.354,-0.312,-0.3202,-0.2542,-0.2571,-0.2431,-0.2436,-0.2064,-0.2051,-0.1282,-0.2217,-0.2218,-0.2219,-0.222,0,-0.4342,-0.445,-0.4652,-0.4756,-0.4792,-0.4876,-0.486,-0.4891,-0.4719,-0.4629,-0.4401,-0.4201,-0.3881,-0.3828,-0.3306,-0.3468,-0.3248,-0.3023,-0.3002,-0.2933,-0.2923,-0.2447,-0.2275,-0.1711,-0.281,-0.2816,-0.282,0,-0.4167,-0.4375,-0.4407,-0.4581,-0.4688,-0.4657,-0.4706,-0.4697,-0.4624,-0.4521,-0.428,-0.4133,-0.4078,-0.3943,-0.3754,-0.3441,-0.3278,-0.3498,-0.2954,-0.2938,-0.3019,-0.2932,-0.2715,-0.2372,-0.2888,-0.2881,-0.2876,0,-0.4032,-0.4185,-0.421,-0.4278,-0.436,-0.4428,-0.4487,-0.4512,-0.4474,-0.4434,-0.4331,-0.4179,-0.4024,-0.3918,-0.3773,-0.3572,-0.3388,-0.3513,-0.3496,-0.3397,-0.2954,-0.302,-0.298,-0.3315,-0.3307,-0.3301,-0.293,0,-0.3944,-0.4033,-0.4099,-0.4194,-0.425,-0.4343,-0.4363,-0.4384,-0.4358,-0.4325,-0.4211,-0.4058,-0.3888,-0.3838,-0.3791,-0.3591,-0.357,-0.35,-0.3408,-0.3392,-0.3239,-0.3197,-0.3626,-0.3622,-0.3618,-0.3616,0,0,-0.377,-0.3885,-0.3891,-0.399,-0.4045,-0.4018,-0.4121,-0.4133,-0.4168,-0.4144,-0.4124,-0.3914,-0.382,-0.3664,-0.3677,-0.3652,-0.3541,-0.3623,-0.3429,-0.3411,-0.3392,-0.3245,-0.3209,-0.361,-0.3609,-0.3608,-0.3607,0,-0.3739,-0.3756,-0.3845,-0.3895,-0.397,-0.3979,-0.4005,-0.4047,-0.404,-0.4091,-0.3966,-0.3853,-0.3824,-0.3675,-0.3599,-0.3632,-0.3462,-0.3613,-0.3641,-0.3412,-0.3398,-0.3383,-0.3238,-0.3208,-0.3599,-0.3599,-0.36,0,-0.3626,-0.3668,-0.3703,-0.3791,-0.3822,-0.3902,-0.3831,-0.3904,-0.395,-0.3822,-0.3864,-0.3771,-0.3635,-0.3609,-0.3581,-0.3534,-0.3373,-0.3481,-0.3493,-0.3442,-0.3196,-0.3182,-0.3169,-0.3329,-0.3329,-0.3329,0,0,-0.3594,-0.3653,-0.3706,-0.3784,-0.3816,-0.3824,-0.3857,-0.3846,-0.3848,-0.3836,-0.3787,-0.3694,-0.3623,-0.3585,-0.3529,-0.3517,-0.3357,-0.346,-0.3472,-0.3484,-0.3441,-0.32,-0.3187,-0.333,-0.333,-0.333,0,0,-0.3572,-0.3632,-0.3617,-0.3709,-0.3762,-0.3791,-0.3839,-0.3813,-0.3801,-0.3777,-0.3677,-0.3658,-0.3637,-0.355,-0.3581,-0.3458,-0.3386,-0.3382,-0.3556,-0.357,-0.3582,-0.355,-0.3441,0,0,0,0,0,-0.3557,-0.3634,-0.3621,-0.3641,-0.3717,-0.3806,-0.3814,-0.3792,-0.3734,-0.3767,-0.3713,-0.3616,-0.3521,-0.3548,-0.3536,-0.3512,-0.3344,-0.3341,-0.3339,-0.3558,-0.3574,-0.3587,0,0,0,0,0,0,-0.3566,-0.3588,-0.362,-0.3656,-0.3675,-0.3801,-0.3708,-0.3702,-0.3729,-0.3717,-0.3634,-0.3614,-0.3542,-0.3546,-0.3537,-0.3515,-0.3444,-0.3343,-0.3341,-0.3339,-0.3563,-0.3576,-0.3587,0,0,0,0,0,-0.3572,-0.359,-0.3716,-0.3654,-0.367,-0.3673,-0.3703,-0.3698,-0.3698,-0.3634,-0.3614,-0.3683,-0.3546,-0.3531,-0.354,-0.3521,-0.3449,-0.3446,-0.3341,-0.334,-0.3338,-0.357,0,0,0,0,0,0,-0.3577,-0.3562,-0.3718,-0.3724,-0.3619,-0.3664,-0.3667,-0.3694,-0.3608,-0.3597,-0.3676,-0.3667,-0.355,-0.3538,-0.3527,-0.3527,-0.3453,-0.345,-0.3449,-0.334,-0.3339,-0.3338,0,0,0,0,0,0,-0.3554,-0.3566,-0.372,-0.3677,-0.3676,-0.3656,-0.3659,-0.3642,-0.3602,-0.3649,-0.3643,-0.3673,-0.3537,-0.3543,-0.3534,-0.3511,-0.3457,-0.3454,-0.3452,-0.3451,-0.3339,-0.3338,0,0,0,0,0,0,-0.3559,-0.3569,-0.3674,-0.3674,-0.3672,-0.3713,-0.3633,-0.3683,-0.3658,-0.3648,-0.3648,-0.3643,-0.3542,-0.3533,-0.3539,-0.3521,-0.3513,-0.3457,-0.3455,-0.3453,-0.3453,0,0,0,0,0,0,0,-0.3563,-0.3497,-0.3707,-0.3671,-0.3669,-0.3773,-0.3773,-0.3772,-0.3657,-0.3653,-0.3649,-0.3645,-0.3473,-0.347,-0.3467,-0.3529,0,0,-0.3457,-0.3456,0,0,0,0,0,0,0,0,-0.3493,-0.3496,-0.3708,-0.371,-0.3712,-0.3773,-0.3773,-0.3772,-0.3656,-0.3653,-0.365,-0.3647,-0.3472,-0.347,-0.3467,0,0,0,0,0,0,0,0,0,0,0,0,0,0,0,-0.3708,-0.3709,0,-0.3773,-0.3773,-0.3772,-0.3656,-0.3653,-0.365,-0.3648,-0.3472,-0.347,-0.3467,0,0,0,0,0,0,0,0,0,0,0,0,0,0,0,0,0,0,0,0,0,0,0,0,0,0,0,0,0,0,0,0,0,0,0,0,0,0,0,0,0,0,0,0,0,0,0,0,0,0,0,0,0,0,0,0,0,0,0,0,0,0,0,0,0,0,0,0,0]}]],[[{"header":{"parameterUnit":"kt","parameterCategory":2,"dx":1,"dy":1,"la1":30.253999710083008,"la2":30.299108505249023,"lo1":-89.0895004272461,"lo2":-89.04439544677734,"nx":28,"ny":28,"refTime":"2022-09-18T21:00:00:Z","depth":"2","parameterNumber":2,"parameterNumberName":"U-component_of_CURRENTS"},"data":[-0.1553,-0.1703,-0.1767,-0.1937,-0.1983,-0.197,-0.1929,-0.1825,-0.1909,-0.204,-0.2119,-0.2433,-0.2149,-0.1834,-0.1589,-0.1308,-0.1205,-0.1205,-0.1543,-0.1382,-0.1385,-0.118,-0.1198,0,0,0,0,0,-0.1508,-0.159,-0.1696,-0.1803,-0.1908,-0.1908,-0.1956,-0.1912,-0.1919,-0.2177,-0.2294,-0.2129,-0.2039,-0.1806,-0.1528,-0.1457,-0.1334,-0.1236,-0.1068,-0.1073,-0.1075,-0.1079,-0.104,-0.1039,-0.1037,-0.1036,0,0,-0.1437,-0.1491,-0.1579,-0.1679,-0.176,-0.1836,-0.1829,-0.1915,-0.1979,-0.2123,-0.2209,-0.2245,-0.2149,-0.1975,-0.1746,-0.1485,-0.1588,-0.1379,-0.1372,-0.1366,-0.1393,-0.1437,-0.1434,-0.1436,-0.1437,-0.1438,-0.1439,0,-0.1403,-0.1426,-0.1458,-0.1576,-0.1637,-0.1692,-0.1775,-0.1824,-0.1911,-0.1997,-0.2099,-0.2134,-0.2101,-0.1939,-0.1789,-0.1636,-0.1383,-0.1368,-0.1427,-0.119,-0.1226,-0.1199,-0.1201,-0.1179,-0.1179,-0.1179,-0.1179,-0.1179,-0.1358,-0.1386,-0.1427,-0.1475,-0.1495,-0.1548,-0.162,-0.1657,-0.1747,-0.1887,-0.1961,-0.1968,-0.2005,-0.1828,-0.1706,-0.1551,-0.1419,-0.1357,-0.1338,-0.1435,-0.141,-0.1407,-0.1405,-0.1179,-0.1179,-0.1179,-0.1179,0,-0.133,-0.1344,-0.1376,-0.141,-0.1427,-0.1464,-0.1541,-0.1616,-0.1689,-0.1809,-0.185,-0.1889,-0.1834,-0.1692,-0.152,-0.1468,-0.1359,-0.134,-0.1258,-0.1232,-0.1386,-0.1388,-0.1412,-0.1416,-0.1419,-0.1422,-0.1424,0,-0.1293,-0.131,-0.1333,-0.1354,-0.1406,-0.1419,-0.1499,-0.1544,-0.1616,-0.1711,-0.1727,-0.1794,-0.1652,-0.1589,-0.146,-0.139,-0.1326,-0.134,-0.1318,-0.1213,-0.1214,-0.1174,-0.1171,-0.1199,-0.1199,-0.12,-0.12,0,-0.1253,-0.1284,-0.1321,-0.133,-0.1375,-0.1404,-0.143,-0.1503,-0.1563,-0.1627,-0.1686,-0.1643,-0.1646,-0.1537,-0.1433,-0.1419,-0.131,-0.1269,-0.1304,-0.1311,-0.1176,-0.1173,-0.12,-0.12,-0.12,-0.12,-0.12,0,-0.1229,-0.1249,-0.1299,-0.132,-0.1333,-0.1367,-0.1433,-0.1479,-0.1542,-0.1567,-0.1576,-0.1573,-0.156,-0.1503,-0.1406,-0.1418,-0.1346,-0.1289,-0.1286,-0.135,-0.131,-0.1185,-0.1224,-0.1236,-0.1236,-0.1237,-0.1237,0,-0.1171,-0.1227,-0.1242,-0.1281,-0.1301,-0.1317,-0.1374,-0.1415,-0.1442,-0.1483,-0.1463,-0.1489,-0.1439,-0.1445,-0.1404,-0.1335,-0.1314,-0.1333,-0.1209,-0.1206,-0.1296,-0.1364,-0.1252,-0.1229,-0.1241,-0.1241,-0.1241,0,-0.1135,-0.1176,-0.1182,-0.1187,-0.1225,-0.1251,-0.1305,-0.135,-0.1387,-0.1398,-0.1428,-0.1416,-0.1397,-0.1383,-0.1355,-0.1328,-0.1321,-0.1278,-0.1274,-0.1267,-0.1247,-0.1355,-0.1363,-0.1272,-0.1271,-0.1271,-0.1244,0,-0.1095,-0.1117,-0.1142,-0.1177,-0.1201,-0.1232,-0.1257,-0.1291,-0.1292,-0.1305,-0.1323,-0.1299,-0.1288,-0.1282,-0.1261,-0.1265,-0.1246,-0.1203,-0.1163,-0.1203,-0.1188,-0.1186,-0.1188,-0.1186,-0.1185,-0.1183,0,0,-0.1029,-0.1071,-0.1088,-0.1121,-0.1133,-0.1138,-0.1166,-0.1194,-0.1218,-0.1232,-0.121,-0.1201,-0.1176,-0.1189,-0.1206,-0.1194,-0.1168,-0.1187,-0.1191,-0.1192,-0.1193,-0.118,-0.118,-0.1181,-0.118,-0.118,-0.1179,0,-0.102,-0.1035,-0.1069,-0.1088,-0.1114,-0.1123,-0.1134,-0.1156,-0.1166,-0.1194,-0.1157,-0.1152,-0.1148,-0.1134,-0.1122,-0.1176,-0.1116,-0.1167,-0.1223,-0.118,-0.1183,-0.1186,-0.1175,-0.1175,-0.1176,-0.1176,-0.1176,0,-0.0977,-0.0997,-0.1011,-0.1052,-0.1063,-0.1092,-0.1069,-0.11,-0.1124,-0.1076,-0.1105,-0.1082,-0.1052,-0.1071,-0.1072,-0.1054,-0.1073,-0.1074,-0.1081,-0.108,-0.1032,-0.1037,-0.1041,-0.0986,-0.0985,-0.0985,0,0,-0.0965,-0.0995,-0.1014,-0.1048,-0.1059,-0.1064,-0.1078,-0.1076,-0.1083,-0.1083,-0.107,-0.1051,-0.104,-0.1039,-0.1027,-0.105,-0.1014,-0.1054,-0.1062,-0.107,-0.1074,-0.1029,-0.1034,-0.0984,-0.0984,-0.0984,0,0,-0.0957,-0.0982,-0.0971,-0.1013,-0.1034,-0.1051,-0.1071,-0.1064,-0.107,-0.1058,-0.1024,-0.1018,-0.1027,-0.1006,-0.0994,-0.101,-0.0969,-0.0972,-0.1034,-0.1044,-0.1053,-0.106,-0.0938,0,0,0,0,0,-0.0944,-0.0981,-0.0971,-0.0978,-0.1014,-0.1056,-0.1061,-0.1054,-0.1031,-0.1052,-0.1035,-0.0996,-0.0993,-0.0982,-0.0979,-0.0994,-0.0967,-0.097,-0.0973,-0.1056,-0.1068,-0.1078,0,0,0,0,0,0,-0.0947,-0.0957,-0.097,-0.0988,-0.0996,-0.1054,-0.1015,-0.1015,-0.1028,-0.1025,-0.1002,-0.0995,-0.097,-0.098,-0.0978,-0.0994,-0.0939,-0.0968,-0.0971,-0.0973,-0.106,-0.107,-0.1078,0,0,0,0,0,-0.095,-0.0957,-0.1015,-0.0987,-0.0994,-0.0997,-0.1014,-0.1013,-0.1022,-0.0996,-0.099,-0.1016,-0.0972,-0.0967,-0.0979,-0.0996,-0.094,-0.0939,-0.097,-0.0972,-0.0974,-0.1065,0,0,0,0,0,0,-0.0951,-0.0956,-0.1017,-0.1019,-0.0971,-0.0993,-0.0996,-0.1011,-0.0991,-0.0987,-0.1007,-0.1004,-0.0973,-0.0969,-0.0966,-0.0999,-0.0941,-0.094,-0.094,-0.0971,-0.0973,-0.0974,0,0,0,0,0,0,-0.0952,-0.0957,-0.1018,-0.0997,-0.0997,-0.099,-0.0993,-0.0992,-0.0989,-0.1002,-0.1,-0.1005,-0.0961,-0.0971,-0.0968,-0.0968,-0.0941,-0.0941,-0.094,-0.094,-0.0973,-0.0974,0,0,0,0,0,0,-0.0954,-0.0959,-0.0997,-0.0996,-0.0996,-0.1017,-0.0987,-0.1013,-0.1008,-0.1002,-0.1003,-0.1001,-0.0962,-0.096,-0.097,-0.0972,-0.0969,-0.0941,-0.0941,-0.0941,-0.0941,0,0,0,0,0,0,0,-0.0956,-0.0924,-0.1006,-0.0995,-0.0995,-0.1037,-0.1038,-0.1038,-0.1007,-0.1006,-0.1004,-0.1002,-0.0945,-0.0944,-0.0944,-0.0974,0,0,-0.0942,-0.0941,0,0,0,0,0,0,0,0,-0.0922,-0.0924,-0.1006,-0.1006,-0.1007,-0.1037,-0.1038,-0.1038,-0.1007,-0.1006,-0.1004,-0.1003,-0.0945,-0.0944,-0.0944,0,0,0,0,0,0,0,0,0,0,0,0,0,0,0,-0.1006,-0.1006,0,-0.1037,-0.1038,-0.1038,-0.1007,-0.1006,-0.1005,-0.1003,-0.0945,-0.0944,-0.0944,0,0,0,0,0,0,0,0,0,0,0,0,0,0,0,0,0,0,0,0,0,0,0,0,0,0,0,0,0,0,0,0,0,0,0,0,0,0,0,0,0,0,0,0,0,0,0,0,0,0,0,0,0,0,0,0,0,0,0,0,0,0,0,0,0,0,0,0,0]}],[{"header":{"parameterUnit":"kt","parameterCategory":2,"dx":1,"dy":1,"la1":30.253999710083008,"la2":30.299108505249023,"lo1":-89.0895004272461,"lo2":-89.04439544677734,"nx":28,"ny":28,"refTime":"2022-09-18T21:00:00:Z","depth":"2","parameterNumber":3,"parameterNumberName":"V-component_of_CURRENTS"},"data":[0.034,0.0188,0.0094,-0.0229,-0.0335,-0.054,-0.0659,-0.0683,-0.0576,-0.0358,-0.0068,0.0464,0.1054,0.1379,0.1732,0.1833,0.159,0.179,0.1683,0.1541,0.1491,0.1622,0.1785,0,0,0,0,0,0.0374,0.0296,0.0211,0.0072,-0.0094,-0.0135,-0.035,-0.0451,-0.0638,-0.0512,-0.0466,0.021,0.0812,0.1113,0.1618,0.1899,0.1827,0.1755,0.1679,0.1642,0.1605,0.1719,0.1995,0.1992,0.1989,0.1985,0,0,0.0478,0.0457,0.0406,0.0266,0.0179,0.0009,-0.0132,-0.0309,-0.053,-0.0715,-0.0603,-0.0361,0.0153,0.0969,0.1152,0.1319,0.1415,0.1489,0.1467,0.1439,0.1557,0.1587,0.1787,0.1784,0.1781,0.1779,0.1777,0,0.0557,0.0538,0.0533,0.0443,0.0337,0.0225,0.0022,-0.0142,-0.038,-0.0525,-0.0664,-0.0617,-0.0217,0.0289,0.0706,0.0936,0.0861,0.1026,0.0552,0.1229,0.1245,0.1283,0.1263,0.1366,0.1361,0.1357,0.1354,0.1351,0.0636,0.0615,0.0603,0.0569,0.0536,0.0398,0.027,0.0075,-0.0125,-0.0376,-0.0504,-0.0552,-0.0459,-0.0151,0.0264,0.0589,0.0454,0.0881,0.1099,0.0718,0.0758,0.0757,0.0756,0.1293,0.1301,0.1307,0.1312,0,0.0677,0.0711,0.0676,0.0647,0.0617,0.0527,0.0308,0.0142,-0.0037,-0.0285,-0.0392,-0.0488,-0.0383,-0.0257,-0.0078,0.0172,0.0371,0.0483,0.0655,0.0727,0.0725,0.0731,0.074,0.0745,0.075,0.0754,0.0757,0,0.0781,0.0734,0.0769,0.0744,0.0653,0.0616,0.042,0.0347,0.0118,-0.005,-0.0124,-0.0253,-0.0142,-0.0118,0.0066,0.0318,0.0205,0.0604,0.0648,0.0828,0.0858,0.0532,0.054,0.0468,0.0469,0.047,0.047,0,0.0857,0.0841,0.0815,0.0804,0.077,0.0695,0.0629,0.0493,0.0366,0.0166,0.0017,-0.0003,-0.0084,0.0045,0.0183,0.0238,0.0296,0.04,0.0637,0.0646,0.0842,0.0873,0.0471,0.0471,0.0471,0.0472,0.0472,0,0.0934,0.0948,0.0906,0.0873,0.0845,0.0786,0.0639,0.058,0.0445,0.0365,0.0269,0.0204,0.018,0.0277,0.0372,0.0374,0.0457,0.0535,0.0535,0.0707,0.0788,0.0895,0.0939,0.0541,0.0542,0.0543,0.0543,0,0.1014,0.0998,0.1009,0.0944,0.0925,0.0892,0.0833,0.0776,0.0692,0.0559,0.0574,0.0447,0.0567,0.0458,0.0526,0.0568,0.0586,0.062,0.0628,0.0627,0.0759,0.0764,0.0982,0.0938,0.0555,0.0553,0.0553,0,0.1074,0.1107,0.1081,0.1069,0.1025,0.0991,0.0939,0.0877,0.0777,0.0755,0.0622,0.0663,0.0605,0.0599,0.0607,0.0635,0.0606,0.0661,0.0663,0.0594,0.0585,0.0756,0.0765,0.0653,0.0653,0.0652,0.0562,0,0.1205,0.1168,0.1141,0.1107,0.1075,0.1024,0.1002,0.0949,0.0894,0.0857,0.0785,0.0785,0.0712,0.0745,0.0755,0.0722,0.0707,0.0765,0.0747,0.0738,0.0702,0.0695,0.0797,0.0798,0.0799,0.08,0,0,0.1245,0.122,0.1209,0.1181,0.1145,0.1112,0.1067,0.1037,0.0962,0.092,0.0906,0.0832,0.0839,0.0796,0.0791,0.0817,0.0798,0.0742,0.0758,0.0753,0.0749,0.0713,0.0705,0.0801,0.0802,0.0802,0.0802,0,0.13,0.1259,0.1228,0.1208,0.1155,0.1129,0.1109,0.1042,0.0995,0.0944,0.0925,0.0894,0.0849,0.0839,0.0834,0.0829,0.0794,0.0824,0.0746,0.0766,0.076,0.0755,0.0718,0.071,0.0804,0.0804,0.0804,0,0.1348,0.1324,0.1299,0.1251,0.1206,0.1171,0.1141,0.1072,0.1034,0.1005,0.0919,0.0908,0.0904,0.0869,0.0849,0.0843,0.0788,0.0811,0.0809,0.0772,0.0792,0.0786,0.0781,0.0841,0.0841,0.0841,0,0,0.1378,0.1346,0.131,0.1254,0.1234,0.1175,0.1136,0.1089,0.1039,0.1002,0.0951,0.0916,0.0905,0.0871,0.0863,0.083,0.0824,0.0811,0.081,0.0808,0.0771,0.079,0.0785,0.084,0.084,0.084,0,0,0.1381,0.1342,0.1322,0.1259,0.1224,0.1164,0.1113,0.1077,0.1013,0.098,0.0943,0.0929,0.0889,0.0883,0.0872,0.0833,0.0849,0.085,0.0802,0.08,0.0799,0.0751,0.0836,0,0,0,0,0,0.1404,0.1362,0.1345,0.1329,0.1232,0.119,0.1174,0.1092,0.1045,0.1016,0.0968,0.0936,0.0876,0.0865,0.0857,0.082,0.0825,0.0827,0.083,0.0765,0.0763,0.0761,0,0,0,0,0,0,0.1397,0.138,0.1346,0.1291,0.1268,0.119,0.114,0.1117,0.1046,0.1031,0.0948,0.0936,0.091,0.0866,0.086,0.0824,0.0838,0.0826,0.0828,0.083,0.0764,0.0763,0.0761,0,0,0,0,0,0.1392,0.1378,0.1239,0.129,0.127,0.1166,0.1138,0.1118,0.1046,0.1002,0.0983,0.098,0.0913,0.0902,0.0862,0.0828,0.0842,0.084,0.0827,0.0829,0.0831,0.0763,0,0,0,0,0,0,0.1388,0.1359,0.1233,0.1224,0.1271,0.1166,0.1146,0.1119,0.1018,0.1,0.1037,0.1028,0.0915,0.0906,0.0898,0.083,0.0846,0.0843,0.0842,0.0829,0.083,0.0831,0,0,0,0,0,0,0.1366,0.1352,0.1228,0.1209,0.1197,0.1167,0.1149,0.1133,0.1019,0.1059,0.1048,0.1034,0.0933,0.091,0.0903,0.0882,0.0848,0.0846,0.0845,0.0844,0.083,0.0831,0,0,0,0,0,0,0.1359,0.1346,0.121,0.1201,0.119,0.1083,0.1152,0.1057,0.0994,0.1065,0.0987,0.0984,0.0939,0.093,0.0907,0.089,0.0884,0.0848,0.0847,0.0846,0.0845,0,0,0,0,0,0,0,0.1353,0.1453,0.1287,0.1195,0.1185,0.1142,0.1139,0.1137,0.0993,0.0991,0.0988,0.0985,0.0861,0.0859,0.0856,0.0896,0,0,0.0849,0.0847,0,0,0,0,0,0,0,0,0.1456,0.1453,0.1287,0.1285,0.1283,0.1141,0.1139,0.1137,0.0993,0.0991,0.0988,0.0986,0.0861,0.0859,0.0857,0,0,0,0,0,0,0,0,0,0,0,0,0,0,0,0.1287,0.1285,0,0.1141,0.1139,0.1138,0.0992,0.0991,0.0989,0.0987,0.086,0.0858,0.0857,0,0,0,0,0,0,0,0,0,0,0,0,0,0,0,0,0,0,0,0,0,0,0,0,0,0,0,0,0,0,0,0,0,0,0,0,0,0,0,0,0,0,0,0,0,0,0,0,0,0,0,0,0,0,0,0,0,0,0,0,0,0,0,0,0,0,0,0,0]}]],[[{"header":{"parameterUnit":"kt","parameterCategory":2,"dx":1,"dy":1,"la1":30.253999710083008,"la2":30.299108505249023,"lo1":-89.0895004272461,"lo2":-89.04439544677734,"nx":28,"ny":28,"refTime":"2022-09-18T21:00:00:Z","depth":"4","parameterNumber":2,"parameterNumberName":"U-component_of_CURRENTS"},"data":[-0.107,-0.1098,-0.1146,-0.1087,-0.1081,-0.1088,-0.1124,-0.1188,-0.1184,-0.1289,-0.13,-0.1355,-0.1365,-0.1475,-0.1363,-0.1361,-0.1599,-0.1402,-0.1396,-0.1913,-0.1955,-0.1992,-0.241,0,0,0,0,0,-0.1147,-0.1151,-0.12,-0.1249,-0.1274,-0.1303,-0.1358,-0.1504,-0.1607,-0.1409,-0.1736,-0.1472,-0.1444,-0.1456,-0.1397,-0.1453,-0.1716,-0.1369,-0.1804,-0.1939,-0.1985,-0.2377,0,0,0,0,0,0,-0.1311,-0.1296,-0.141,-0.1442,-0.1475,-0.1456,-0.1607,-0.164,-0.1815,-0.202,-0.1781,-0.183,-0.1886,-0.1834,-0.165,-0.1649,-0.1732,-0.1788,-0.1839,-0.1884,-0.2157,-0.2058,-0.1241,0,0,0,0,0,-0.1395,-0.15,-0.157,-0.1644,-0.1717,-0.1791,-0.2057,-0.2036,-0.2511,-0.2652,-0.2483,-0.2457,-0.21,-0.2142,-0.2027,-0.1916,-0.2415,-0.2126,-0.2157,-0.2665,-0.2611,-0.2499,-0.2552,-0.2159,-0.2165,-0.2168,-0.2171,0,-0.155,-0.1587,-0.1814,-0.1835,-0.1945,-0.2286,-0.2426,-0.2983,-0.3085,-0.327,-0.3134,-0.3005,-0.2994,-0.2449,-0.2601,-0.2407,-0.2466,-0.2242,-0.2785,-0.269,-0.2556,-0.26,-0.264,-0.2207,-0.2205,-0.2202,-0.2199,0,-0.1602,-0.1731,-0.1851,-0.2137,-0.2219,-0.2463,-0.2837,-0.3077,-0.3591,-0.3684,-0.3792,-0.391,-0.3615,-0.3622,-0.3393,-0.3304,-0.3042,-0.2855,-0.324,-0.3092,-0.2692,-0.2718,-0.2268,-0.2255,-0.2243,-0.2234,-0.2226,0,-0.173,-0.1832,-0.207,-0.21,-0.2262,-0.2592,-0.2911,-0.328,-0.3736,-0.3849,-0.4314,-0.4243,-0.4483,-0.4204,-0.4138,-0.366,-0.374,-0.3544,-0.3362,-0.3927,-0.3943,-0.3716,-0.3711,-0.3829,-0.3835,-0.3841,-0.3845,0,-0.1845,-0.1994,-0.2041,-0.2061,-0.2317,-0.2437,-0.2741,-0.3161,-0.3353,-0.3991,-0.4054,-0.4463,-0.456,-0.4492,-0.4276,-0.4381,-0.3908,-0.3995,-0.3546,-0.351,-0.3747,-0.3732,-0.3852,-0.3853,-0.3855,-0.3857,-0.3859,0,-0.1917,-0.1966,-0.2051,-0.2246,-0.2289,-0.2444,-0.2722,-0.3013,-0.3478,-0.3716,-0.4137,-0.4324,-0.4618,-0.4734,-0.4578,-0.4659,-0.4471,-0.4353,-0.4319,-0.3923,-0.3696,-0.3525,-0.3742,-0.3746,-0.3749,-0.3753,-0.3756,0,-0.1893,-0.1998,-0.2035,-0.2177,-0.2232,-0.231,-0.2531,-0.2754,-0.3035,-0.3399,-0.378,-0.4183,-0.4326,-0.4605,-0.4714,-0.4584,-0.4562,-0.4782,-0.4006,-0.3979,-0.3709,-0.3855,-0.457,-0.3807,-0.3801,-0.3796,-0.3793,0,-0.1876,-0.2009,-0.2027,-0.2096,-0.2162,-0.222,-0.2396,-0.2598,-0.2849,-0.3166,-0.3485,-0.4003,-0.4211,-0.4352,-0.4526,-0.4602,-0.4598,-0.4414,-0.4399,-0.4053,-0.4176,-0.3931,-0.3873,-0.4564,-0.4565,-0.4566,-0.3828,0,-0.1885,-0.1974,-0.1985,-0.2119,-0.2161,-0.2178,-0.2333,-0.2474,-0.2666,-0.2836,-0.3239,-0.3523,-0.3827,-0.4,-0.4079,-0.4342,-0.4052,-0.4034,-0.3856,-0.4111,-0.3736,-0.3711,-0.389,-0.3882,-0.3875,-0.387,0,0,-0.1836,-0.1905,-0.1965,-0.2017,-0.2018,-0.2129,-0.2181,-0.2306,-0.2456,-0.2561,-0.2649,-0.3131,-0.3288,-0.3649,-0.3827,-0.3847,-0.3603,-0.3823,-0.4015,-0.4033,-0.4048,-0.3708,-0.3691,-0.3858,-0.3855,-0.3853,-0.3851,0,-0.18,-0.1856,-0.1942,-0.1977,-0.2045,-0.2079,-0.2135,-0.2207,-0.228,-0.2531,-0.2562,-0.2869,-0.3088,-0.3249,-0.3365,-0.3723,-0.3439,-0.3756,-0.4033,-0.3961,-0.3988,-0.401,-0.3684,-0.3673,-0.3834,-0.3835,-0.3836,0,-0.1775,-0.1802,-0.1862,-0.1939,-0.1966,-0.2045,-0.2023,-0.2068,-0.2176,-0.2182,-0.238,-0.2512,-0.2627,-0.2892,-0.3013,-0.294,-0.323,-0.3276,-0.3311,-0.3272,-0.318,-0.3215,-0.3247,-0.2825,-0.2823,-0.2821,0,0,-0.1752,-0.1817,-0.1887,-0.1938,-0.1969,-0.2009,-0.2037,-0.2055,-0.212,-0.2161,-0.2253,-0.2373,-0.2541,-0.2661,-0.2727,-0.2984,-0.2769,-0.3164,-0.3212,-0.3252,-0.3237,-0.3156,-0.3192,-0.2812,-0.2812,-0.2812,0,0,-0.1712,-0.1795,-0.1858,-0.1915,-0.1972,-0.1948,-0.1966,-0.2018,-0.2115,-0.2135,-0.218,-0.2206,-0.2456,-0.2446,-0.233,-0.2762,-0.2549,-0.2574,-0.2832,-0.289,-0.2936,-0.2897,-0.2231,0,0,0,0,0,-0.1758,-0.1791,-0.1851,-0.1869,-0.1923,-0.1945,-0.1948,-0.1951,-0.1985,-0.2022,-0.2119,-0.2086,-0.2392,-0.2287,-0.2312,-0.2566,-0.2701,-0.2721,-0.2739,-0.3123,-0.3185,-0.3237,0,0,0,0,0,0,-0.1764,-0.1784,-0.1848,-0.1832,-0.1845,-0.1942,-0.1897,-0.1897,-0.1979,-0.1981,-0.2068,-0.2084,-0.2067,-0.2273,-0.2296,-0.2541,-0.2224,-0.2709,-0.2725,-0.2741,-0.3144,-0.3195,-0.3238,0,0,0,0,0,-0.1769,-0.1785,-0.1889,-0.1829,-0.1841,-0.1857,-0.1897,-0.1897,-0.1973,-0.1989,-0.2005,-0.1989,-0.2065,-0.2092,-0.2286,-0.2533,-0.2208,-0.2216,-0.272,-0.2733,-0.2745,-0.3169,0,0,0,0,0,0,-0.1773,-0.1759,-0.189,-0.1892,-0.1834,-0.1852,-0.186,-0.1897,-0.1978,-0.1991,-0.1903,-0.1903,-0.2064,-0.2085,-0.2105,-0.2537,-0.2194,-0.2203,-0.2209,-0.273,-0.274,-0.2749,0,0,0,0,0,0,-0.1751,-0.1761,-0.189,-0.1896,-0.1897,-0.1848,-0.1855,-0.1947,-0.1984,-0.1888,-0.1889,-0.1903,-0.209,-0.208,-0.2096,-0.2232,-0.2184,-0.2193,-0.2199,-0.2202,-0.2738,-0.2746,0,0,0,0,0,0,-0.1754,-0.1762,-0.1894,-0.1896,-0.1897,-0.1907,-0.1933,-0.2021,-0.1895,-0.1888,-0.1896,-0.1896,-0.2089,-0.2102,-0.209,-0.2218,-0.2228,-0.2185,-0.219,-0.2195,-0.2197,0,0,0,0,0,0,0,-0.1756,-0.1715,-0.1892,-0.1896,-0.1897,-0.1908,-0.1907,-0.1906,-0.1895,-0.1896,-0.1896,-0.1896,-0.2136,-0.2146,-0.2155,-0.2206,0,0,-0.2184,-0.2188,0,0,0,0,0,0,0,0,-0.171,-0.1713,-0.1892,-0.1893,-0.1894,-0.1907,-0.1907,-0.1906,-0.1895,-0.1896,-0.1896,-0.1896,-0.2139,-0.2146,-0.2154,0,0,0,0,0,0,0,0,0,0,0,0,0,0,0,-0.1892,-0.1893,0,-0.1907,-0.1907,-0.1906,-0.1895,-0.1896,-0.1896,-0.1896,-0.2141,-0.2147,-0.2153,0,0,0,0,0,0,0,0,0,0,0,0,0,0,0,0,0,0,0,0,0,0,0,0,0,0,0,0,0,0,0,0,0,0,0,0,0,0,0,0,0,0,0,0,0,0,0,0,0,0,0,0,0,0,0,0,0,0,0,0,0,0,0,0,0,0,0,0,0]}],[{"header":{"parameterUnit":"kt","parameterCategory":2,"dx":1,"dy":1,"la1":30.253999710083008,"la2":30.299108505249023,"lo1":-89.0895004272461,"lo2":-89.04439544677734,"nx":28,"ny":28,"refTime":"2022-09-18T21:00:00:Z","depth":"4","parameterNumber":3,"parameterNumberName":"V-component_of_CURRENTS"},"data":[-0.0079,-0.013,-0.0173,-0.017,-0.0159,-0.0297,-0.0439,-0.0543,-0.0475,-0.0499,-0.0184,-0.0096,0.049,0.0206,0.1065,0.1167,0.1249,0.1809,0.1817,0.1885,0.1871,0.1859,0.2057,0,0,0,0,0,-0.0145,-0.0153,-0.0232,-0.0345,-0.0448,-0.0511,-0.0757,-0.0868,-0.0932,-0.0731,-0.0673,-0.0284,0.0322,0.0507,0.0978,0.0996,0.1513,0.1546,0.1593,0.1877,0.1861,0.2059,0,0,0,0,0,0,-0.023,-0.0287,-0.0351,-0.0466,-0.0603,-0.0716,-0.0855,-0.0844,-0.0831,-0.0658,-0.0666,-0.021,0.0022,0.0615,0.1012,0.1476,0.1446,0.1513,0.1518,0.1508,0.1611,0.1336,0.1443,0,0,0,0,0,-0.0307,-0.0344,-0.0455,-0.0574,-0.0703,-0.0871,-0.0977,-0.0961,-0.0926,-0.0822,-0.0591,-0.0196,0.0208,0.0716,0.1229,0.1514,0.1788,0.1857,0.1846,0.1848,0.1653,0.1571,0.1539,0.1803,0.1801,0.18,0.1799,0,-0.033,-0.0389,-0.0601,-0.0677,-0.077,-0.0932,-0.1031,-0.1042,-0.0996,-0.081,-0.0657,-0.0189,0.0135,0.0772,0.1209,0.1669,0.1757,0.1819,0.1823,0.1626,0.1553,0.1524,0.1497,0.1787,0.1788,0.1789,0.179,0,-0.0311,-0.0424,-0.0584,-0.0795,-0.0885,-0.0993,-0.1124,-0.114,-0.0975,-0.0773,-0.0526,-0.0121,0.0338,0.0782,0.1256,0.1431,0.1738,0.1809,0.149,0.1417,0.1488,0.1465,0.1766,0.1771,0.1775,0.1778,0.1781,0,-0.0319,-0.0438,-0.0615,-0.0682,-0.0892,-0.1016,-0.113,-0.1125,-0.0986,-0.0905,-0.0432,-0.0164,0.0487,0.0824,0.1109,0.1472,0.15,0.1617,0.1578,0.1411,0.1385,0.1464,0.1441,0.1678,0.168,0.1681,0.1683,0,-0.0259,-0.0451,-0.0604,-0.0678,-0.0896,-0.1007,-0.1093,-0.1163,-0.1161,-0.0771,-0.0566,-0.0087,0.036,0.0687,0.1155,0.111,0.1522,0.1417,0.1514,0.15,0.1464,0.1439,0.1685,0.1685,0.1685,0.1686,0.1687,0,-0.0256,-0.035,-0.0518,-0.0748,-0.0787,-0.0896,-0.1062,-0.1126,-0.1037,-0.0896,-0.0516,-0.0211,0.0308,0.0541,0.0987,0.0945,0.11,0.1206,0.12,0.138,0.1202,0.0828,0.0923,0.0919,0.0916,0.0913,0.091,0,-0.0217,-0.0351,-0.0401,-0.0577,-0.0663,-0.0731,-0.0862,-0.0933,-0.0885,-0.0776,-0.0437,-0.018,0.0053,0.0373,0.0628,0.0876,0.1002,0.0931,0.104,0.1039,0.1145,0.1298,0.1076,0.0864,0.087,0.0874,0.0877,0,-0.0163,-0.0277,-0.028,-0.0364,-0.0453,-0.0508,-0.0636,-0.0705,-0.0734,-0.0583,-0.0476,-0.021,0.0113,0.0214,0.0438,0.067,0.0894,0.0778,0.0788,0.069,0.1112,0.121,0.1242,0.1027,0.1037,0.1045,0.0845,0,-0.0201,-0.0234,-0.0258,-0.0307,-0.0361,-0.0411,-0.0442,-0.0479,-0.0439,-0.0416,-0.0288,-0.0043,0.0172,0.0179,0.0317,0.0568,0.0466,0.0532,0.0611,0.069,0.0556,0.0581,0.0291,0.0291,0.0292,0.0292,0,0,-0.0134,-0.0154,-0.0113,-0.0157,-0.0205,-0.0149,-0.0217,-0.0237,-0.022,-0.0231,-0.0136,0.0047,0.0145,0.0267,0.0347,0.0296,0.0322,0.0395,0.0594,0.0626,0.0657,0.0541,0.0564,0.0292,0.0292,0.0292,0.0292,0,-0.0121,-0.0089,-0.0101,-0.012,-0.0115,-0.0122,-0.0118,-0.0101,-0.0105,-0.0112,-0.0036,0.0125,0.0113,0.0233,0.028,0.0286,0.0331,0.025,0.0404,0.0585,0.0617,0.0647,0.0538,0.0559,0.0293,0.0293,0.0293,0,-0.0071,-0.0056,-0.0051,-0.0032,-0.0026,-0.0068,0.0022,0.001,-0.0047,0.0082,0.0034,0.0128,0.0193,0.022,0.024,0.0272,0.0374,0.0304,0.0303,0.042,0.0615,0.0648,0.0678,0.0316,0.0316,0.0316,0,0,-0.0056,-0.0056,-0.0018,-0.0022,-0.0013,0.0013,0.0016,0.0035,0.0061,0.0075,0.0113,0.0162,0.0197,0.0242,0.0242,0.028,0.0347,0.0306,0.0305,0.0304,0.0417,0.0611,0.0641,0.0316,0.0316,0.0316,0,0,-0.0051,-0.0011,0.0016,0.0026,0.0031,0.0044,0.0035,0.0069,0.0093,0.0105,0.017,0.0183,0.0204,0.024,0.0235,0.029,0.0295,0.0296,0.0282,0.0281,0.028,0.0415,0.0282,0,0,0,0,0,-0.0015,-0.0019,0.0005,0.0013,0.004,0.0029,0.0028,0.0067,0.0111,0.0099,0.0148,0.0186,0.0251,0.0247,0.0253,0.028,0.0316,0.0316,0.0316,0.0301,0.03,0.0299,0,0,0,0,0,0,-0.0012,-0.0003,0.0005,0.0022,0.0029,0.0029,0.0083,0.009,0.0113,0.0122,0.0173,0.0186,0.0215,0.0246,0.0251,0.0277,0.0281,0.0316,0.0316,0.0316,0.0301,0.03,0.0299,0,0,0,0,0,-0.0009,-0.0002,0.0045,0.0021,0.0026,0.007,0.0085,0.0092,0.0111,0.0156,0.0169,0.0147,0.0212,0.0221,0.025,0.0275,0.0278,0.0279,0.0316,0.0316,0.0316,0.03,0,0,0,0,0,0,-0.0007,-0.0015,0.0045,0.0047,0.005,0.007,0.0078,0.0093,0.0145,0.0157,0.013,0.0137,0.0209,0.0217,0.0224,0.0273,0.0275,0.0277,0.0278,0.0316,0.0316,0.0316,0,0,0,0,0,0,-0.0018,-0.0013,0.0046,0.0081,0.0087,0.0071,0.0078,0.0086,0.0147,0.0117,0.0123,0.0133,0.0226,0.0213,0.0219,0.0226,0.0273,0.0275,0.0276,0.0277,0.0316,0.0316,0,0,0,0,0,0,-0.0016,-0.0012,0.0081,0.0085,0.009,0.0107,0.0079,0.012,0.0136,0.0114,0.0144,0.0148,0.0223,0.0228,0.0215,0.0219,0.0224,0.0273,0.0274,0.0275,0.0276,0,0,0,0,0,0,0,-0.0015,-0.0038,0.0043,0.0088,0.0093,0.0064,0.0064,0.0063,0.0137,0.014,0.0144,0.0147,0.0264,0.0266,0.0268,0.0213,0,0,0.0273,0.0274,0,0,0,0,0,0,0,0,-0.0039,-0.0038,0.0043,0.0044,0.0045,0.0064,0.0064,0.0063,0.0138,0.014,0.0143,0.0145,0.0265,0.0266,0.0268,0,0,0,0,0,0,0,0,0,0,0,0,0,0,0,0.0043,0.0044,0,0.0064,0.0064,0.0063,0.0138,0.014,0.0142,0.0144,0.0265,0.0266,0.0268,0,0,0,0,0,0,0,0,0,0,0,0,0,0,0,0,0,0,0,0,0,0,0,0,0,0,0,0,0,0,0,0,0,0,0,0,0,0,0,0,0,0,0,0,0,0,0,0,0,0,0,0,0,0,0,0,0,0,0,0,0,0,0,0,0,0,0,0,0]}]]]